Theta_e
314 317 317 317 315 314 313 312 312 312 312 312 312 313 313 312 311 311 311 310 310 310 311 312 311 310 310 310 311 311 311 311 311 311 311 311 310 310 310 310 310 310 310 309 308 308 308 308 308 307 307 306 306 306 306 306 305 305 304 303 302 302 301 300 300 300 299 299 298 298 298 298 298 298 298 299 299 299 298 297 297 296 295 296 296 296
311 315 316 316 314 313 313 313 311 311 312 312 313 313 312 312 311 310 311 311 310 310 311 312 312 310 310 310 310 311 311 311 311 311 312 312 311 312 311 311 311 310 310 310 310 308 307 307 307 307 306 306 305 306 306 306 306 305 304 303 302 301 301 301 300 300 299 299 299 299 298 298 298 298 298 299 299 298 298 297 298 297 296 295 295 296
313 313 314 313 312 312 313 312 311 312 312 313 313 313 313 312 311 311 311 312 310 311 314 315 312 310 311 311 310 311 311 311 311 312 312 312 313 312 312 312 311 311 311 311 311 309 306 305 306 306 305 305 306 306 306 306 305 305 303 302 302 301 300 300 300 300 300 300 300 299 299 298 297 297 298 298 298 298 298 298 298 297 296 295 295 295
316 315 312 310 311 311 312 312 312 312 312 313 313 313 313 312 312 313 313 314 312 311 315 314 311 310 310 310 310 310 310 311 311 311 312 312 312 312 312 313 312 311 312 310 311 310 307 305 304 303 304 304 305 305 305 305 304 303 303 302 301 301 301 300 300 300 300 299 299 299 298 298 297 297 297 297 297 297 298 298 298 297 297 296 295 294
315 315 314 311 310 312 313 313 312 313 312 313 314 313 313 312 312 312 313 315 313 313 316 313 312 313 313 312 311 311 310 310 310 310 311 311 311 312 311 312 312 311 311 311 311 310 310 311 305 301 304 304 303 304 305 304 304 303 303 302 301 301 300 300 300 300 299 298 298 297 297 297 296 296 296 296 296 296 297 297 297 297 296 296 295 294
313 314 314 313 314 313 313 313 314 316 313 313 314 313 312 312 312 312 313 313 315 319 318 314 315 317 318 317 313 312 312 311 310 310 310 310 310 310 311 311 311 311 311 310 311 310 311 313 305 300 302 303 302 304 305 305 304 304 303 301 301 300 300 300 299 299 299 298 298 297 297 296 295 295 295 296 295 295 296 296 296 296 296 296 295 294
313 313 313 315 317 316 314 314 315 316 312 313 319 319 313 311 313 314 314 314 319 323 316 314 318 318 318 318 316 315 315 314 313 311 310 311 310 311 312 311 311 311 311 311 311 311 310 311 308 303 301 301 303 304 304 304 304 303 302 301 300 300 300 299 299 299 298 298 297 297 297 297 296 295 295 296 296 295 295 295 295 295 296 295 295 294
315 313 313 313 314 316 316 315 314 314 313 316 322 323 318 316 316 315 313 315 319 319 315 315 319 319 317 317 318 318 317 316 314 313 312 311 312 312 313 313 312 311 311 312 313 312 310 310 309 306 301 302 304 304 303 303 303 303 302 301 300 300 299 299 299 299 298 298 297 297 297 297 297 297 296 296 295 295 295 295 295 295 295 295 295 294
314 315 316 314 313 316 315 313 315 315 314 317 318 318 319 318 317 316 316 317 317 317 316 316 316 319 319 316 317 315 314 316 315 314 314 313 313 313 314 315 313 312 311 312 312 311 311 308 305 303 303 304 304 303 303 303 303 302 301 301 300 299 299 299 299 298 298 298 298 297 297 297 297 297 296 296 295 295 295 294 294 294 295 295 294 294
313 314 316 315 315 315 313 315 319 318 315 316 316 317 320 320 320 320 319 318 319 320 318 317 316 318 320 319 318 314 314 319 317 314 313 312 313 313 314 315 314 313 313 312 311 310 310 306 303 304 304 303 303 302 303 303 302 302 300 300 299 299 299 298 298 298 298 298 298 297 297 297 297 296 296 295 295 294 294 294 294 294 294 294 294 294
311 310 311 314 315 314 316 316 314 316 316 314 317 322 323 322 323 325 325 318 318 320 319 321 319 317 320 320 319 317 318 319 316 315 317 314 316 317 315 313 313 313 313 313 312 312 310 304 301 302 302 301 302 302 302 301 301 301 300 299 299 298 298 298 298 298 298 298 297 297 297 297 297 296 295 295 294 294 294 293 293 293 293 294 294 294
311 309 312 317 317 316 317 314 310 313 315 314 320 324 321 323 324 325 325 320 319 321 320 321 317 316 319 318 316 318 319 318 315 317 322 322 323 325 321 315 312 312 312 314 314 313 314 311 306 302 300 300 300 300 300 300 300 300 299 299 298 298 298 298 298 298 297 297 297 297 297 297 297 296 295 295 294 294 293 293 293 292 292 293 293 293
315 313 313 314 315 315 316 316 314 313 312 314 320 320 318 321 321 321 324 321 321 320 316 315 315 314 316 316 315 317 317 319 318 316 321 325 325 325 323 318 314 313 311 311 312 314 320 323 318 307 300 298 298 298 299 299 299 299 299 298 298 297 298 297 297 297 297 297 297 297 297 297 296 296 295 295 294 294 294 293 293 292 292 292 292 292
319 316 312 311 313 315 315 316 316 316 314 314 317 318 318 320 319 322 326 323 321 320 315 312 315 316 316 319 319 315 314 317 317 315 317 319 318 318 319 318 316 315 312 310 313 319 322 324 320 308 298 296 298 298 297 298 299 298 298 298 298 298 297 297 297 297 297 297 297 297 297 296 296 296 296 295 295 294 294 293 293 293 292 292 292 292
319 319 316 314 316 317 314 312 317 320 317 313 317 320 318 320 324 325 326 325 322 322 317 311 316 321 319 320 320 317 316 318 319 319 317 314 314 315 314 314 313 312 311 311 315 320 324 327 317 303 297 297 298 297 297 298 298 298 298 298 298 297 297 297 297 297 297 297 297 296 296 296 296 296 295 295 295 295 294 294 293 293 293 293 293 292
317 321 320 316 315 314 312 313 318 322 318 314 319 320 315 320 329 324 323 324 320 320 319 314 319 322 317 316 317 318 318 318 319 317 313 313 314 314 313 314 313 313 313 314 315 316 321 325 311 297 296 298 297 297 297 297 297 297 298 297 297 298 297 297 297 297 297 297 296 296 296 296 296 295 295 295 295 294 294 294 293 293 293 293 293 292
317 322 320 313 313 313 312 313 316 320 318 315 316 318 314 318 324 320 321 322 317 319 320 318 320 320 317 317 317 316 315 313 315 315 312 314 315 314 315 317 318 319 319 316 314 314 316 318 309 297 296 298 298 298 297 296 297 297 297 298 297 297 297 297 297 297 297 296 296 296 296 296 295 295 295 295 295 294 294 293 293 293 293 293 292 292
318 320 318 314 315 313 309 311 314 315 315 316 318 317 314 316 318 318 320 320 318 320 320 318 320 318 319 320 316 317 319 317 317 317 316 316 317 319 322 322 321 319 315 312 312 313 314 317 313 300 296 299 298 298 298 297 297 296 297 298 297 297 297 297 297 297 296 296 296 296 296 296 295 295 295 295 294 294 293 293 293 293 292 292 292 292
318 316 318 318 317 314 310 312 315 313 310 314 318 315 315 319 319 318 319 319 318 320 320 319 319 317 319 319 316 318 320 319 319 316 316 317 318 321 323 320 318 314 313 313 313 313 313 316 315 302 298 300 299 298 298 298 297 296 296 297 297 297 298 297 297 296 296 296 296 296 296 295 296 295 295 295 294 294 293 293 293 292 292 292 292 291
318 317 319 320 316 314 313 314 318 316 311 310 312 312 314 317 318 318 320 320 319 320 321 321 320 319 318 317 316 317 317 319 319 318 320 322 320 318 317 316 316 315 315 316 315 314 314 313 310 301 300 301 299 299 299 298 298 297 296 296 296 297 297 297 297 296 296 296 296 296 296 295 295 295 295 295 294 293 293 293 293 292 292 292 291 291
317 318 319 320 317 315 315 316 320 320 317 315 313 313 312 313 316 317 316 317 317 318 320 322 322 322 321 320 317 316 317 319 320 320 324 325 321 318 317 317 317 316 315 314 314 314 313 311 306 299 301 302 300 300 299 298 298 297 297 297 296 297 296 296 296 296 296 296 296 296 295 295 295 295 295 294 294 294 293 293 293 292 292 292 291 291
317 318 319 320 319 317 317 318 318 317 317 317 315 314 313 313 316 317 316 317 317 316 319 320 320 322 323 323 317 314 317 319 319 320 322 323 322 320 319 317 316 314 313 312 312 311 309 310 306 300 300 301 301 300 299 298 297 297 297 297 296 296 296 296 296 296 297 296 296 296 295 295 295 295 294 294 294 293 293 293 293 292 292 291 291 291
319 320 318 319 319 319 319 318 317 313 312 313 313 313 315 313 314 316 317 318 317 317 317 318 319 321 321 320 316 315 316 315 316 318 317 318 318 316 316 316 315 313 311 310 309 307 308 309 304 299 298 299 299 299 298 298 298 297 297 297 296 296 296 297 297 297 296 296 295 295 295 295 295 294 294 293 293 293 293 293 293 292 292 291 291 291
318 319 319 319 319 319 319 318 316 313 311 313 314 312 313 313 313 314 315 316 317 317 317 319 320 321 323 324 320 317 317 315 314 315 313 313 314 313 314 315 314 312 310 309 308 306 308 308 304 302 302 298 297 298 297 298 298 298 298 298 297 297 297 297 297 297 296 295 295 295 294 294 294 293 293 293 293 293 293 293 292 292 291 291 290 290
318 319 321 321 320 320 319 318 318 315 313 314 315 314 313 313 313 314 314 315 316 316 317 319 318 319 324 326 321 317 317 315 313 313 313 313 313 313 313 313 313 312 310 308 308 307 307 306 304 304 301 296 296 297 297 297 297 297 298 297 296 296 296 297 297 297 296 295 294 294 294 294 293 293 293 293 293 293 293 293 292 291 291 290 290 290
317 318 321 320 320 321 319 318 320 320 316 314 315 316 314 314 314 314 315 316 316 317 317 318 317 317 319 320 317 315 315 313 313 313 313 312 313 314 314 312 311 310 307 306 305 303 302 301 301 300 298 296 296 297 297 297 297 297 297 297 297 297 297 298 298 296 295 295 294 293 293 293 293 293 293 293 293 293 292 292 292 291 290 290 290 289
315 317 319 319 319 320 318 317 318 320 318 316 317 316 315 315 315 314 316 317 317 318 317 317 317 317 317 316 315 314 313 313 313 313 313 312 313 314 311 308 305 303 302 301 300 298 298 298 298 297 296 296 296 297 297 298 298 298 298 298 299 299 299 300 298 296 295 295 294 294 293 293 293 293 293 293 293 292 292 291 291 290 290 289 289 289
313 315 317 317 317 318 317 317 317 317 317 317 318 317 315 315 315 315 316 316 316 318 317 317 317 317 316 315 314 314 313 313 313 312 313 312 310 307 303 301 300 299 299 298 297 297 297 296 296 296 295 294 295 295 296 297 298 299 299 299 299 300 299 299 298 296 295 294 294 293 293 293 293 293 293 292 292 292 291 291 291 290 290 289 289 288
312 313 315 316 316 316 316 316 316 317 317 317 317 317 317 316 316 315 315 315 315 316 316 316 315 316 315 314 314 313 312 311 311 309 307 305 302 300 299 298 298 298 297 297 297 296 295 295 296 295 294 293 294 294 294 295 296 297 297 297 298 298 298 298 297 296 295 294 293 294 294 293 293 292 292 292 291 291 291 291 290 290 290 289 289 288
309 311 313 313 313 314 315 315 315 315 315 316 316 316 316 316 316 316 316 316 315 316 316 315 315 315 314 312 310 308 305 303 302 300 298 297 297 296 296 296 296 296 296 296 296 295 295 295 295 294 294 293 293 293 293 294 294 295 296 296 296 296 297 297 296 296 295 294 294 295 294 293 292 292 292 291 291 291 291 290 290 290 289 289 288 288
308 310 310 310 310 311 312 313 314 314 314 315 315 315 315 315 316 316 316 316 316 316 315 314 316 316 309 303 301 300 298 296 297 296 295 294 294 294 293 294 294 294 295 295 295 295 294 294 294 294 293 293 292 293 293 293 294 295 295 295 295 295 295 295 295 295 295 295 295 295 293 293 292 292 291 291 291 291 290 290 290 289 289 288 287 287
305 306 306 307 308 308 310 312 312 312 312 312 312 312 312 313 314 314 315 316 316 316 316 316 316 309 300 296 297 297 295 294 295 295 293 292 293 293 293 293 293 293 294 294 294 294 293 293 293 293 292 292 292 292 292 293 293 294 294 294 294 294 294 293 293 294 294 294 295 294 293 293 292 292 292 291 291 290 290 290 289 289 288 287 287 287
303 304 305 306 306 307 307 309 309 308 308 308 308 310 312 313 314 314 314 313 310 310 312 311 305 298 295 295 295 294 294 293 293 294 293 291 292 292 292 292 292 292 293 293 293 293 293 293 293 292 291 291 291 292 292 293 293 293 293 293 293 293 293 292 292 292 292 293 293 293 293 293 292 292 292 291 291 290 290 289 289 288 288 287 287 286
302 302 302 303 304 304 304 304 304 303 304 304 304 306 308 308 308 307 305 301 300 301 302 300 297 294 294 294 293 293 294 293 292 294 294 291 291 292 292 292 292 292 292 292 292 292 292 292 292 291 291 291 291 292 292 292 292 292 292 292 292 293 292 291 291 291 291 291 292 292 292 292 292 292 291 291 290 290 289 289 288 288 287 287 286 285
300 300 300 301 301 301 301 302 303 301 302 303 300 299 300 300 299 299 295 293 293 296 297 295 295 294 293 293 293 292 293 293 292 295 295 291 291 292 292 292 292 292 292 292 292 292 292 291 291 291 291 291 291 291 292 292 292 292 291 292 292 292 291 290 290 290 290 290 290 290 291 291 291 291 291 290 290 289 289 288 288 287 286 286 285 285
300 299 300 300 301 301 301 302 302 301 302 304 300 297 297 297 296 297 296 292 290 292 295 294 294 293 292 293 292 292 293 293 292 295 295 291 291 292 292 292 292 292 292 292 291 292 291 291 291 291 291 291 291 291 291 291 291 291 291 291 291 291 290 290 290 290 289 289 289 289 289 290 290 290 290 289 289 288 288 287 287 286 286 285 284 284
300 301 301 301 302 303 302 302 302 301 302 303 299 296 295 296 295 297 298 295 289 290 294 293 292 292 292 292 292 292 293 292 291 294 294 291 292 293 292 292 292 292 292 291 291 291 291 291 290 290 291 291 291 291 291 291 291 291 291 291 291 290 290 290 290 290 289 288 288 288 288 288 289 289 289 289 288 287 287 286 286 285 285 284 283 282
300 301 302 302 303 303 302 302 302 303 304 300 294 293 295 296 295 294 297 297 291 289 292 293 291 292 292 292 292 292 292 291 290 291 292 291 292 292 292 292 292 291 290 290 290 291 290 290 290 290 290 290 290 290 290 290 291 291 291 291 290 290 289 290 290 290 289 289 288 287 287 287 287 288 288 287 287 287 286 285 285 284 284 283 282 282
299 300 301 302 302 302 301 300 300 301 302 297 292 294 297 296 294 294 297 299 293 290 293 293 291 292 293 292 292 292 291 290 290 290 291 291 292 292 291 291 291 289 290 290 290 290 289 289 289 289 289 289 289 290 290 290 290 291 290 290 290 290 290 290 290 290 289 289 289 288 287 286 286 287 287 287 286 286 285 285 284 284 283 283 282 281
300 300 300 299 299 299 299 300 299 299 300 296 293 294 296 294 294 296 299 298 293 291 294 295 292 293 293 293 293 293 292 291 290 290 290 291 292 291 291 290 289 288 288 288 289 289 288 288 288 288 288 288 289 289 289 289 290 290 290 290 290 290 290 290 290 290 289 289 289 289 288 286 286 286 286 286 286 285 284 284 283 283 282 282 281 280
297 299 298 297 296 297 297 297 296 297 298 294 291 293 293 292 294 296 296 294 290 290 294 296 294 294 293 293 293 292 292 292 291 291 291 291 291 291 290 289 288 288 288 288 288 288 287 288 288 288 288 288 288 288 288 289 289 289 289 289 289 289 290 290 290 290 290 289 289 289 288 287 286 285 285 285 285 284 284 283 282 282 281 280 280 279
294 296 296 296 296 295 296 295 294 296 297 293 290 292 292 292 294 295 293 290 289 290 293 295 295 294 293 293 293 292 292 292 292 291 292 291 291 290 288 287 287 287 287 287 287 287 287 287 287 287 287 287 286 287 287 287 287 287 288 288 288 289 289 289 290 290 290 289 289 289 289 288 286 285 285 284 284 283 283 282 281 281 280 280 279 278
295 294 294 295 295 293 293 293 293 294 294 292 290 291 291 292 293 293 291 290 290 292 292 293 294 294 293 293 292 292 292 291 291 291 291 290 289 287 286 286 286 286 286 286 286 286 286 286 286 286 286 285 285 285 286 286 286 286 287 287 287 287 288 288 289 289 289 289 289 289 289 288 287 285 284 284 283 282 282 281 280 280 279 279 278 277
295 293 291 292 293 292 291 291 292 293 293 292 291 290 290 291 291 291 290 289 289 291 292 293 294 293 293 293 293 292 291 291 291 290 289 288 286 285 285 285 285 285 285 284 284 285 285 285 284 284 284 284 284 284 284 284 285 285 286 286 286 286 287 287 288 288 288 288 289 289 289 288 287 286 284 283 282 282 281 280 279 279 278 278 277 277
293 293 291 291 292 293 292 292 293 292 291 291 291 290 290 290 290 290 289 289 289 289 291 293 293 293 293 293 292 291 290 290 290 289 287 286 285 284 284 284 284 283 283 283 283 283 283 283 283 282 282 282 282 282 282 282 283 284 284 284 284 285 285 286 287 288 288 288 288 288 288 287 287 286 284 283 282 281 281 280 279 278 277 277 277 276
292 292 291 290 291 292 291 291 291 291 290 290 290 290 290 290 290 289 289 289 288 289 291 292 293 292 292 291 290 289 288 288 287 285 284 283 283 283 283 283 282 282 281 281 281 282 281 281 280 280 280 280 280 280 280 281 281 282 282 282 282 283 284 285 286 287 287 287 287 287 287 286 285 285 284 283 282 281 281 280 278 277 277 276 276 276
292 291 290 290 290 290 290 290 290 290 290 289 289 289 289 289 288 288 288 288 288 290 291 291 290 289 288 287 287 286 285 284 283 282 282 282 282 281 281 281 280 280 280 280 280 280 279 279 278 278 278 278 278 278 279 279 279 279 279 279 280 281 282 282 283 284 285 285 286 286 286 285 284 284 283 282 281 280 280 279 278 277 277 276 276 276
291 291 290 290 290 290 290 290 289 289 289 289 288 288 288 288 288 288 288 287 288 289 289 288 286 285 285 285 284 282 281 281 281 280 280 280 280 280 279 279 279 278 278 278 278 278 277 277 276 276 276 276 276 277 277 276 276 276 276 277 278 278 279 279 280 281 282 283 284 285 285 284 284 283 282 281 280 279 279 279 278 277 277 277 276 276
290 291 291 290 290 289 289 289 289 289 289 289 289 288 288 288 287 287 287 286 286 286 285 284 283 282 282 281 280 279 279 279 279 279 279 279 278 278 278 277 277 277 277 277 277 277 276 275 275 275 275 275 275 275 274 274 274 274 274 275 275 275 275 276 277 277 278 279 281 283 283 283 283 282 281 280 279 279 279 279 278 277 277 277 277 277
290 290 290 290 289 289 289 289 289 289 289 289 289 289 288 288 287 287 286 285 284 282 282 282 281 280 279 278 278 278 278 278 278 278 277 277 277 276 276 276 275 275 275 276 275 275 274 274 274 273 273 273 273 273 272 272 272 272 272 272 272 272 272 273 274 275 275 276 278 280 282 282 281 281 280 280 279 278 278 278 278 277 277 277 277 277
290 289 289 290 289 289 289 289 289 289 288 288 288 288 286 285 285 284 282 280 280 279 278 278 278 277 277 276 276 276 276 276 276 276 276 275 275 275 274 274 274 274 274 274 273 273 273 272 272 272 271 271 271 270 270 270 270 270 270 269 269 270 270 271 272 274 275 276 277 279 280 281 281 280 279 279 278 278 277 277 277 277 277 277 277 276
Wind_Speed
3 4 4 6 12 13 10 13 17 16 10 6 5 6 8 8 9 9 13 12 2 3 8 10 15 17 15 16 16 17 15 15 19 18 15 13 12 13 14 15 14 15 17 19 24 23 21 25 26 27 30 32 34 35 37 37 39 42 42 42 43 43 43 43 43 42 43 42 39 38 39 41 42 43 44 44 45 45 45 44 43 42 41 41 40 38
2 6 8 14 18 11 9 13 14 10 7 6 6 7 8 6 12 13 13 14 2 2 8 9 15 19 15 16 15 15 15 16 20 19 17 16 14 13 14 17 16 14 14 15 19 20 19 20 22 24 27 30 33 35 38 40 42 44 43 44 44 43 44 46 47 46 46 47 46 44 45 46 44 45 46 46 47 46 45 45 44 43 42 41 41 39
3 6 13 19 13 2 3 6 6 7 8 7 5 6 7 6 11 12 10 12 3 2 7 9 14 16 14 16 15 16 17 16 18 19 18 17 16 15 16 17 16 15 15 14 17 17 14 16 20 23 26 31 34 36 39 41 41 41 42 43 42 43 45 47 47 47 47 48 47 45 44 44 41 42 45 45 44 45 44 44 43 43 42 42 41 40
5 7 15 17 6 1 5 4 7 5 5 6 7 6 8 7 8 8 6 7 3 3 7 10 13 13 12 16 15 18 19 14 15 19 18 17 17 19 18 16 16 16 16 15 17 16 9 11 17 21 25 30 32 32 35 37 38 39 41 42 42 44 46 46 47 48 46 44 42 39 37 36 35 35 38 37 37 40 42 43 44 44 43 42 41 41
9 7 9 10 6 7 9 5 6 5 6 8 9 7 10 12 12 10 5 6 6 5 6 8 14 11 9 14 14 13 13 11 14 18 19 18 18 19 17 15 16 17 17 15 16 16 8 8 14 20 25 27 29 32 36 38 39 40 42 43 43 44 44 45 46 46 42 39 37 34 29 28 29 28 30 32 34 38 42 44 45 45 44 43 42 41
10 6 4 6 7 9 8 7 7 7 8 8 7 12 18 16 12 11 8 7 6 5 5 5 9 10 7 12 12 7 6 9 11 15 19 19 17 16 14 14 15 15 16 14 14 16 11 8 11 17 22 24 28 34 37 38 40 40 40 41 41 41 42 43 43 43 42 40 39 37 32 30 29 27 31 38 40 41 43 44 44 44 43 43 42 41
6 6 6 8 8 8 7 6 8 10 9 8 6 13 17 13 9 11 8 3 2 4 4 3 1 10 7 6 9 7 7 11 11 12 17 16 15 13 10 11 13 12 12 11 12 13 13 11 9 13 19 24 29 33 33 33 35 36 36 38 40 40 41 41 42 43 42 41 40 41 39 37 36 34 37 42 40 40 42 42 41 43 43 43 43 42
4 4 5 8 7 6 6 7 9 11 7 7 5 8 10 9 9 8 6 4 4 3 3 1 5 6 14 5 8 10 10 11 12 13 15 15 15 12 9 11 14 12 10 9 10 13 14 11 9 11 18 26 30 29 28 31 34 35 36 38 40 40 40 41 42 44 44 43 42 42 41 39 40 40 38 37 35 36 39 40 40 42 43 43 43 42
4 5 7 8 6 5 8 9 7 11 7 6 1 5 6 5 5 4 4 4 1 4 3 3 6 3 13 6 3 4 7 9 13 15 16 15 14 11 9 12 14 12 10 9 11 13 12 8 9 13 18 24 27 26 28 32 34 35 36 37 39 39 39 40 42 45 46 46 45 44 42 40 41 39 34 32 33 34 36 39 40 41 42 43 43 43
2 5 7 9 6 7 8 5 6 12 8 3 6 5 4 4 3 5 3 3 2 4 5 6 7 3 11 6 4 3 3 7 11 12 13 12 11 10 10 13 13 10 10 10 9 10 10 8 11 15 17 20 22 25 27 30 32 33 34 35 37 39 38 40 42 44 46 45 44 44 44 42 39 36 32 30 32 34 35 38 39 40 42 43 44 44
3 1 3 5 5 6 3 2 3 8 6 3 6 5 6 5 4 4 1 3 2 8 6 11 13 7 8 5 4 3 4 6 8 7 8 9 10 10 10 11 11 9 9 8 8 8 7 7 8 9 12 14 17 21 24 26 29 32 33 35 37 38 38 40 42 44 46 45 45 45 45 43 40 36 33 32 33 35 36 38 39 40 42 43 45 45
4 2 2 3 2 4 6 3 1 1 4 4 3 4 3 4 4 4 4 4 1 9 5 11 13 10 9 6 2 5 6 5 7 7 7 9 10 10 9 10 9 8 7 6 7 8 8 7 5 4 8 10 13 18 22 25 28 31 33 35 36 37 39 41 42 44 45 45 46 45 44 44 41 38 37 37 36 37 38 38 38 38 39 41 43 44
3 6 5 1 1 5 5 2 3 5 3 4 4 4 1 4 3 2 3 1 4 8 3 6 7 6 12 9 5 9 10 9 9 8 8 9 9 9 9 9 8 8 7 4 5 7 7 7 6 4 6 9 13 17 21 24 28 31 33 35 37 38 40 40 41 44 45 46 47 47 45 43 41 40 40 40 39 39 40 39 38 38 39 39 41 45
4 4 3 3 3 5 8 6 3 2 4 6 5 6 4 3 2 4 4 2 6 6 2 3 5 4 9 6 8 14 14 12 9 8 9 9 9 10 10 9 9 11 9 4 4 6 6 7 6 5 6 10 13 16 19 23 27 30 32 35 37 37 39 40 42 43 44 47 48 47 45 43 41 41 42 42 41 41 41 40 41 42 42 42 45 47
4 7 5 7 3 6 11 11 8 4 5 6 5 5 5 5 4 4 4 5 7 5 3 2 4 5 4 3 7 11 9 7 5 7 7 6 8 8 8 10 10 11 10 6 4 5 6 7 6 6 8 11 14 15 18 22 26 29 31 35 36 36 38 41 41 42 45 47 47 45 44 43 43 44 43 42 42 41 42 42 43 43 44 45 47 47
4 9 7 5 1 9 12 9 6 6 2 3 3 3 4 5 5 4 7 6 3 3 4 3 4 5 4 6 8 9 9 8 8 8 5 6 8 5 7 9 9 9 9 9 8 6 7 7 5 6 9 11 14 15 19 24 27 31 32 34 36 36 38 41 42 44 47 47 44 43 44 43 43 42 42 42 43 43 43 43 43 44 45 46 45 45
4 7 4 2 1 5 6 3 3 4 2 2 3 3 5 4 6 5 8 3 0 5 7 6 8 6 5 10 8 4 8 9 9 9 7 8 8 5 7 8 7 8 9 8 8 8 8 7 5 7 9 12 14 17 21 25 28 31 32 32 34 33 34 39 44 46 46 44 43 44 45 44 43 43 44 45 45 44 42 41 43 43 43 44 44 44
5 7 4 5 3 3 0 1 2 1 3 5 4 5 2 2 2 2 3 1 2 9 8 8 14 10 5 8 4 5 5 6 6 7 6 7 6 4 6 7 7 8 8 8 9 8 8 7 5 8 11 12 15 18 21 24 25 26 29 31 32 33 36 41 44 43 42 42 43 44 45 46 46 46 46 45 43 41 40 40 42 42 42 43 43 42
2 6 6 3 4 2 3 1 3 4 1 5 3 2 2 2 3 2 2 3 7 10 7 9 16 12 8 10 7 5 7 8 7 6 4 6 6 4 5 8 8 8 7 9 10 11 12 10 5 6 11 12 13 17 19 21 22 24 27 29 31 34 38 38 37 37 38 39 42 43 44 46 46 46 45 44 41 39 40 42 43 43 43 43 42 42
1 3 5 1 3 1 3 1 3 4 1 1 1 2 1 3 3 3 3 2 5 10 9 9 11 9 8 10 11 10 8 8 9 7 5 6 7 6 6 7 8 8 9 10 11 12 15 15 8 4 9 13 13 15 17 20 23 26 28 28 31 34 34 33 33 35 37 39 41 42 42 43 45 46 46 44 41 40 41 43 43 43 43 42 42 43
2 2 5 3 2 2 2 3 6 5 3 2 3 4 3 3 1 1 2 1 3 7 8 8 9 7 5 7 12 10 6 8 8 6 6 7 6 6 7 8 10 9 9 9 9 10 11 12 10 8 11 12 13 16 18 20 23 25 26 30 33 33 33 33 34 35 38 40 41 42 43 43 45 46 46 43 42 42 43 43 43 44 43 42 43 44
0 2 3 4 5 6 5 4 5 5 4 4 4 4 6 5 3 5 6 4 4 6 7 8 9 7 3 5 10 7 4 7 6 6 6 7 7 8 8 9 9 9 10 9 9 9 8 8 9 11 13 12 14 18 19 19 22 24 26 30 32 32 34 36 36 38 40 41 41 44 45 45 44 44 43 42 42 43 43 43 44 45 44 43 44 45
2 2 1 4 7 9 10 6 6 5 4 4 4 3 5 5 4 7 9 7 6 7 7 9 10 7 4 7 12 12 7 5 6 7 7 7 7 8 8 9 9 9 10 10 9 7 7 8 10 12 13 13 14 18 18 18 21 24 27 30 30 33 37 39 38 40 40 40 42 44 44 43 43 42 41 42 43 44 45 46 46 45 44 45 44 44
2 3 2 5 5 7 12 12 8 5 4 4 5 6 7 7 7 8 8 4 6 8 7 9 11 5 3 6 9 11 13 12 10 9 9 10 9 8 8 8 9 10 10 9 8 7 7 8 10 11 10 10 13 15 17 20 22 24 28 30 32 35 39 38 37 37 37 39 42 41 40 41 41 41 42 43 44 46 48 47 46 45 45 45 44 44
2 3 3 4 5 6 8 8 7 2 4 5 7 10 11 11 12 10 5 2 6 9 10 11 11 6 2 5 7 9 13 16 18 17 16 16 13 10 8 7 8 9 9 9 9 9 9 10 10 10 9 10 15 16 17 19 20 21 24 26 28 32 35 34 34 36 36 38 39 37 38 39 39 40 43 44 45 47 48 47 45 45 44 44 44 44
3 5 5 5 8 9 10 9 6 2 3 3 5 10 13 14 16 12 7 7 8 9 12 12 11 8 6 6 8 12 15 18 21 23 22 20 15 9 7 6 6 6 9 10 11 10 10 10 11 11 11 14 18 20 21 22 23 23 23 25 26 30 34 34 33 33 35 36 36 37 38 39 39 41 43 45 47 47 47 45 44 43 43 44 44 44
1 4 7 11 12 12 13 14 10 5 3 3 4 9 11 13 15 12 8 10 10 10 12 12 12 14 12 11 14 16 16 18 20 22 24 23 18 10 6 7 8 9 10 10 11 12 12 12 12 13 13 15 19 22 23 25 26 27 27 28 30 31 34 35 34 33 34 35 37 38 39 40 41 42 44 46 45 44 42 41 41 41 41 42 43 43
1 4 9 15 16 15 16 18 17 15 14 11 11 11 11 11 12 12 12 14 13 12 13 12 14 18 15 12 17 19 18 19 19 19 20 17 15 12 11 12 13 12 12 13 13 14 14 13 13 13 13 16 20 21 22 22 22 24 26 29 31 32 35 37 35 34 34 35 35 38 39 40 42 44 45 44 41 38 38 39 40 41 41 41 42 44
2 5 8 13 17 17 17 19 19 19 18 16 16 16 16 16 16 17 19 20 16 15 16 15 17 21 17 14 17 16 13 13 12 12 13 14 14 14 14 14 14 13 13 14 13 14 14 13 14 14 14 17 22 25 25 24 24 24 25 27 29 30 32 33 32 33 34 34 35 39 40 40 41 42 41 39 37 37 39 40 41 41 42 43 44 45
3 3 5 9 13 14 14 17 18 18 19 18 18 18 18 20 22 23 24 22 20 20 21 20 23 24 16 12 11 9 9 9 10 12 14 15 14 13 14 13 13 12 12 12 12 12 12 13 13 14 15 17 21 24 27 28 30 31 31 32 33 33 33 30 30 32 32 34 37 40 39 37 37 36 35 35 37 38 39 40 40 41 43 44 45 44
3 4 6 8 9 9 10 12 12 13 15 16 16 17 17 19 22 23 21 18 19 21 21 22 24 18 8 9 10 10 10 10 12 13 12 12 12 12 13 12 12 12 12 12 11 11 12 12 13 14 14 17 21 24 25 27 29 31 33 36 37 37 36 32 29 31 31 34 39 38 35 33 33 32 32 34 36 36 37 38 39 41 42 42 42 42
3 3 6 8 7 7 8 9 9 10 12 13 14 16 18 18 16 15 15 14 16 19 19 19 15 7 6 9 8 9 12 13 12 10 8 9 10 11 11 11 11 11 11 12 12 12 12 13 13 14 14 17 22 25 26 27 28 29 31 35 38 39 38 35 29 28 30 33 34 33 30 29 29 30 32 34 35 36 37 37 38 39 40 40 41 41
3 4 5 6 7 8 10 12 11 11 11 12 13 14 15 15 14 15 14 11 10 11 10 8 3 3 6 9 10 12 12 13 12 7 5 8 10 9 10 10 10 11 11 11 11 12 12 11 10 12 15 18 22 25 27 27 26 27 30 33 36 37 37 37 33 29 29 30 29 27 26 26 26 29 32 33 34 35 35 36 37 39 39 40 40 40
6 7 6 6 7 9 13 16 13 11 12 11 7 5 3 5 7 7 5 5 7 7 4 3 4 4 7 8 10 11 10 10 11 6 1 6 9 9 10 10 10 10 10 9 10 10 10 10 11 16 19 22 24 27 28 28 28 30 32 32 34 36 36 36 35 32 30 29 28 26 25 25 26 28 30 30 31 31 33 35 37 38 38 38 38 39
9 8 6 5 6 8 9 10 10 11 9 3 4 6 3 3 6 7 7 8 10 8 8 6 5 5 6 6 6 7 7 7 10 7 2 6 9 7 9 10 9 10 9 9 10 10 10 10 13 18 22 23 27 29 29 30 31 34 34 33 33 35 36 35 34 33 31 30 29 26 24 24 25 27 27 25 26 29 31 34 34 34 35 36 38 40
9 8 5 4 5 6 4 6 10 10 5 1 4 7 3 3 6 5 5 7 9 8 6 5 4 4 5 6 5 5 7 8 7 5 2 6 9 6 7 9 8 9 9 9 9 9 10 12 15 18 21 23 26 27 27 30 32 33 33 33 31 32 34 33 32 32 32 31 31 28 25 23 24 26 24 23 24 27 29 30 31 32 33 34 35 36
10 7 5 5 6 5 5 8 9 10 9 3 1 4 2 1 3 3 1 2 6 6 3 0 2 4 4 5 6 6 7 7 6 2 3 3 6 5 6 7 7 8 9 10 12 13 14 16 18 20 21 23 25 26 27 29 31 30 30 31 31 32 32 30 29 31 32 32 32 29 26 23 23 24 24 23 24 27 28 29 29 30 31 31 31 32
9 8 7 6 5 5 7 8 6 8 7 1 2 5 5 5 6 4 5 3 4 3 2 4 1 5 4 4 6 6 6 7 7 4 1 3 6 5 5 6 6 7 11 13 16 18 18 19 20 20 21 22 24 26 28 30 29 27 27 28 29 31 29 27 28 31 32 33 33 30 26 23 22 23 23 23 25 27 27 27 28 29 31 32 32 32
2 5 6 5 4 5 7 7 6 7 4 3 3 7 7 7 6 3 4 3 4 0 4 5 3 6 5 4 5 3 4 7 7 7 6 6 6 5 5 6 6 9 13 16 18 18 19 20 21 21 21 22 23 27 30 31 29 26 24 26 27 28 27 26 29 31 32 33 33 30 26 23 21 22 23 24 26 26 26 27 28 28 30 31 32 31
5 2 3 4 5 6 7 6 5 5 2 2 3 6 7 7 3 2 5 3 2 2 5 6 5 7 5 5 4 2 2 5 6 9 10 8 6 5 5 6 8 10 13 16 19 19 21 21 20 19 20 21 23 27 30 31 29 26 25 26 25 24 25 28 32 33 34 34 32 30 27 23 21 22 23 24 26 25 25 26 26 28 29 30 31 30
2 2 3 4 6 7 8 7 5 4 3 3 4 7 7 4 1 4 6 2 3 6 4 7 7 8 6 6 5 4 5 6 7 10 11 9 7 6 6 9 12 14 15 17 19 20 20 19 17 18 19 21 23 27 28 27 27 25 26 26 24 24 28 32 34 36 36 36 34 32 28 24 22 21 22 23 24 23 24 25 26 28 29 30 29 28
2 2 2 4 5 4 5 6 6 5 3 3 3 8 5 1 2 6 4 0 3 7 6 6 8 8 6 7 7 6 8 8 8 10 10 9 8 8 8 10 12 14 15 16 17 18 18 17 17 18 19 20 22 24 25 25 25 25 26 25 25 28 32 34 35 36 37 36 36 34 30 26 23 21 20 21 21 21 23 24 25 27 28 28 28 27
4 2 3 3 3 2 3 4 6 7 3 3 3 6 2 1 5 6 3 2 5 6 7 7 7 7 7 7 8 8 8 8 8 9 9 9 9 8 9 10 10 12 13 14 16 17 17 16 16 17 19 21 22 23 24 24 24 24 24 25 28 32 35 35 35 35 36 36 35 34 32 29 25 21 19 19 19 21 22 22 23 25 26 26 25 24
4 4 4 4 3 3 4 5 5 5 3 3 5 5 6 8 7 4 3 5 6 6 6 6 6 7 8 7 7 7 7 8 9 8 8 9 10 10 10 10 11 12 13 15 17 18 17 16 17 19 21 22 23 24 25 25 23 23 24 26 31 34 35 35 35 34 34 34 33 33 33 30 26 23 20 19 19 20 21 21 22 23 24 24 23 22
5 6 5 5 5 5 5 6 6 4 3 6 7 9 12 13 8 5 4 6 7 7 5 5 6 8 7 6 6 6 7 8 8 8 9 10 10 11 12 12 12 14 16 19 21 20 18 17 19 21 23 24 25 25 26 25 23 24 26 29 32 34 34 36 35 33 32 32 31 32 32 30 27 24 21 20 20 21 22 22 22 22 23 24 23 22
5 4 3 2 5 7 6 7 9 8 7 9 11 10 10 9 7 6 6 7 8 8 7 6 6 6 5 5 5 6 7 7 7 8 9 9 10 11 11 11 13 16 18 20 22 23 21 20 21 21 22 25 27 26 26 26 24 25 30 33 33 33 34 35 34 32 31 30 30 31 30 28 27 25 22 21 22 23 24 24 24 23 23 24 24 24
5 5 4 5 8 8 7 9 11 10 10 11 11 10 9 8 7 7 7 8 9 9 8 6 5 4 4 5 5 5 6 7 7 8 8 8 9 11 11 11 12 14 17 19 21 22 21 19 19 20 21 26 30 29 26 27 27 28 33 36 35 33 32 33 33 33 32 30 30 30 28 27 26 24 23 22 23 24 24 25 26 25 24 25 25 25
4 3 5 8 11 10 10 13 13 12 12 11 10 9 10 10 10 9 9 9 7 6 5 2 2 2 3 4 4 4 6 8 8 8 8 8 9 10 11 11 12 14 19 23 23 22 19 17 17 19 21 26 31 32 30 30 32 33 34 35 35 32 31 32 33 33 33 33 32 30 28 27 26 24 23 23 24 26 26 26 27 28 29 30 30 28
3 3 4 6 8 9 11 13 12 13 13 12 11 10 9 9 9 9 8 5 2 2 4 4 3 2 3 4 4 5 7 10 10 8 8 9 10 11 11 12 14 17 21 25 25 23 21 19 20 21 23 27 32 34 34 34 35 37 36 36 34 32 31 32 33 33 34 34 33 31 29 27 25 25 24 24 25 27 29 30 31 32 33 34 35 34
4 7 8 5 6 8 11 12 12 11 10 9 10 11 8 5 5 6 5 3 4 4 5 6 6 5 4 5 5 5 8 10 10 9 9 10 11 12 12 13 15 18 22 24 24 24 23 23 24 25 27 32 35 35 35 36 38 40 42 40 35 31 31 33 33 32 32 32 31 30 29 26 25 25 25 24 24 25 28 30 32 33 33 33 34 36
7 10 9 7 8 11 13 13 12 9 7 9 11 9 5 3 2 2 3 4 4 4 4 5 7 8 8 8 7 6 8 10 11 10 10 11 13 15 17 16 15 17 21 23 23 23 24 27 27 26 28 34 37 36 37 38 41 45 46 41 34 31 31 32 29 27 28 28 28 29 28 26 24 24 24 25 25 24 23 24 27 30 32 31 29 30
Wind_Direction
135 157 170 195 227 228 195 187 211 227 239 237 226 245 249 256 265 253 259 263 231 280 260 243 261 265 262 263 262 267 273 275 272 270 266 259 257 257 256 257 254 251 254 263 269 264 250 244 237 232 228 222 221 221 219 217 215 215 214 211 210 208 205 202 200 199 199 199 200 202 205 209 211 213 214 217 218 219 219 219 218 218 217 217 216 215
144 186 205 217 228 227 192 199 217 231 251 252 237 259 259 244 261 258 262 273 244 200 259 245 263 268 263 263 261 262 264 264 266 268 268 265 259 257 257 258 256 254 259 266 270 265 250 241 232 225 221 215 214 215 215 215 215 214 212 210 209 205 202 202 201 199 199 201 201 202 206 209 209 210 212 214 216 217 218 218 218 218 218 217 216 215
208 216 225 227 233 249 183 181 189 217 230 240 239 260 265 247 268 268 257 272 270 173 269 265 264 268 265 263 257 254 252 249 257 262 263 266 263 260 257 258 260 259 262 263 265 265 245 229 225 218 215 213 214 215 214 215 215 211 209 209 207 203 201 202 201 201 202 203 204 205 207 207 207 210 212 214 215 215 216 217 218 219 218 217 217 216
212 232 232 233 233 226 243 171 145 209 224 218 225 242 260 252 261 266 252 285 304 219 269 285 277 270 261 263 255 246 249 248 257 261 261 261 259 259 257 259 264 262 263 261 263 270 246 213 218 213 213 214 213 213 213 212 210 208 208 207 205 203 202 201 201 203 203 202 202 204 207 207 206 210 212 213 216 215 215 216 217 218 218 217 217 216
233 243 230 224 207 204 235 224 179 231 249 220 213 217 247 248 242 250 272 334 328 274 287 306 293 277 226 240 252 245 247 248 252 259 262 260 255 257 260 259 260 260 261 262 265 271 253 209 216 214 214 214 210 212 213 211 209 208 208 207 204 204 202 201 201 201 200 198 197 198 201 202 203 207 208 209 214 214 214 215 215 216 216 217 218 217
251 246 179 181 205 204 217 231 206 215 248 249 214 213 235 247 250 259 285 345 344 299 327 1 310 293 199 205 243 254 246 242 242 249 254 258 258 258 261 259 256 256 260 260 262 269 263 231 219 218 216 212 212 216 216 213 211 209 208 205 203 202 201 201 200 198 197 195 194 193 191 191 194 199 204 208 211 210 211 213 213 214 215 216 217 217
249 231 186 186 204 196 197 240 222 203 238 271 227 211 230 245 255 259 270 315 282 258 305 52 337 292 278 198 219 234 229 240 244 245 251 257 260 258 259 264 262 257 260 263 262 265 262 244 219 216 215 212 217 220 217 213 211 209 207 203 201 201 200 200 198 196 196 195 194 195 195 195 196 200 207 211 212 211 210 211 213 214 214 215 217 218
209 216 211 206 198 175 186 240 225 186 207 267 235 194 207 225 238 239 232 223 234 274 305 115 131 276 287 246 193 208 211 237 252 251 255 257 259 261 260 265 266 261 258 262 265 262 260 251 233 225 219 217 222 221 214 211 209 208 206 203 201 200 199 199 197 196 196 196 196 197 199 201 204 207 211 211 210 212 212 211 212 213 214 215 216 218
164 197 209 189 174 184 208 229 198 157 191 256 178 149 170 193 210 174 169 200 253 345 291 207 136 245 279 269 137 196 206 235 252 248 251 253 260 269 262 259 265 269 264 251 253 263 270 269 248 239 232 227 224 218 212 210 208 206 204 201 199 199 199 198 197 197 198 199 199 199 201 204 208 211 212 211 209 211 211 210 211 212 213 214 215 217
174 209 195 162 166 211 220 227 165 158 197 224 106 92 73 74 75 99 138 151 72 311 251 194 162 217 278 275 89 70 195 229 244 243 252 258 262 269 263 263 265 269 271 262 256 266 275 275 258 245 238 232 224 216 213 209 205 202 199 197 196 197 198 197 198 199 199 201 201 202 203 205 208 208 209 209 207 208 209 208 209 210 212 213 213 214
236 206 158 166 189 200 164 80 172 171 179 152 103 58 35 31 30 55 53 84 59 280 239 184 181 189 275 281 131 169 207 222 237 244 265 269 265 265 263 267 272 271 277 289 294 289 291 295 281 254 238 232 221 212 208 203 200 198 196 195 195 197 198 198 199 200 201 202 203 205 206 207 208 205 204 204 203 205 205 206 207 208 210 211 212 213
249 206 197 216 186 129 102 88 332 71 126 127 100 69 25 335 9 26 348 52 171 265 236 182 181 182 235 258 187 242 256 240 229 227 245 257 262 269 269 269 277 280 281 305 317 316 327 325 302 245 230 224 214 206 201 198 196 194 194 193 194 196 198 199 199 201 202 203 205 208 209 210 209 206 205 205 204 204 204 206 206 206 208 209 210 211
261 215 208 233 184 145 131 134 344 2 97 118 114 127 135 305 342 346 309 80 213 257 247 171 169 202 244 255 255 266 272 249 225 219 229 240 255 269 276 280 289 288 285 313 323 312 315 306 289 251 224 212 208 207 201 196 193 193 194 193 194 197 198 199 200 202 203 205 207 209 210 211 210 209 209 209 208 208 207 207 206 206 207 207 208 209
286 263 170 141 259 183 155 173 227 263 173 156 153 158 170 212 244 257 258 261 254 264 283 162 161 247 275 270 234 239 251 247 226 221 230 237 255 269 277 285 291 288 297 348 339 306 301 293 288 266 235 217 213 212 206 199 196 194 194 195 197 198 198 199 202 203 204 208 210 210 211 211 210 211 212 213 212 211 210 209 208 209 208 208 210 211
253 286 192 169 230 182 179 201 197 149 159 182 159 144 185 196 193 221 227 249 265 275 301 215 178 226 265 280 233 233 258 278 246 234 246 258 262 269 282 288 293 294 309 340 325 293 283 274 266 252 241 231 222 215 210 206 200 197 197 199 199 199 199 200 202 204 206 210 212 212 212 212 212 213 214 215 215 214 213 212 211 212 212 212 214 214
221 267 230 192 183 164 183 210 169 115 128 218 123 109 235 209 165 225 244 239 266 305 282 232 220 233 247 279 266 254 270 280 266 262 281 287 278 299 306 291 297 300 302 311 307 293 279 268 253 241 238 235 229 220 215 212 206 203 201 202 202 202 201 201 203 206 209 211 212 212 214 214 214 214 215 216 217 217 216 215 214 215 215 215 216 216
236 268 234 169 324 177 182 207 160 149 191 182 130 185 227 161 143 223 261 261 42 267 257 244 258 272 295 287 279 268 268 265 274 281 274 272 283 318 303 280 285 290 291 300 304 302 291 281 271 258 246 237 230 224 221 220 216 210 205 204 206 206 204 205 207 210 211 211 211 213 215 215 215 216 217 218 218 217 217 217 217 217 217 217 217 217
240 273 244 163 203 255 219 359 327 320 144 138 176 213 186 91 129 183 251 311 241 247 249 246 258 269 279 274 298 33 329 289 283 291 296 288 279 266 272 275 276 277 284 296 298 297 288 277 267 267 265 250 237 232 230 229 228 225 217 209 208 208 209 210 211 212 211 211 212 214 215 216 217 218 219 220 220 218 216 217 218 218 218 218 218 217
230 265 275 160 167 294 6 21 303 318 107 142 204 233 115 180 239 168 186 228 235 245 247 232 249 260 250 253 272 293 287 284 274 282 314 295 272 261 275 283 285 288 306 320 321 321 312 306 294 271 281 278 258 245 240 236 234 235 232 222 214 214 216 216 215 214 215 214 215 216 217 217 218 219 220 221 221 219 217 218 218 218 219 219 218 217
42 242 273 64 119 4 14 118 210 257 313 77 277 304 104 182 199 180 191 197 227 247 253 237 237 245 244 258 271 261 244 248 253 252 253 253 254 264 272 284 302 317 326 326 323 318 313 317 334 317 285 284 278 265 250 241 236 233 235 233 225 222 222 222 220 218 218 219 219 219 219 219 219 220 221 221 220 219 219 220 219 219 219 218 217 217
29 254 262 293 317 288 274 210 197 203 191 161 222 241 227 212 211 259 236 175 233 255 261 255 246 242 249 270 275 265 219 220 229 212 226 249 258 271 287 308 317 318 315 307 301 301 304 312 330 332 306 296 294 282 259 243 239 234 234 236 233 228 225 225 224 221 222 222 222 222 221 220 220 220 220 220 219 219 221 221 220 220 220 218 218 217
157 245 262 281 274 259 254 209 174 176 168 170 203 229 233 233 247 269 255 219 223 250 253 259 260 253 255 289 293 285 206 206 218 208 241 273 285 291 300 305 304 302 300 294 291 299 308 307 311 320 318 309 293 279 262 245 241 237 234 236 237 234 229 228 226 225 225 225 224 225 224 222 221 220 220 219 219 220 220 221 221 221 218 217 217 216
147 118 214 254 249 255 267 255 206 205 213 212 219 228 243 238 218 238 248 239 237 245 249 262 263 248 234 276 298 304 287 253 223 216 241 263 266 275 284 289 293 289 285 287 292 301 306 301 301 309 314 304 284 273 263 249 241 240 239 238 238 238 236 233 230 229 228 226 227 227 226 225 222 219 218 218 219 220 220 221 221 220 218 217 216 215
96 101 214 246 251 262 270 271 263 236 202 228 235 217 223 232 226 235 248 259 262 253 251 263 259 235 206 259 282 298 300 295 279 262 267 273 273 272 267 275 285 283 284 294 303 309 306 302 305 312 318 308 293 282 270 257 246 243 243 241 238 239 239 238 235 235 232 230 231 230 228 227 224 220 217 217 219 220 221 221 220 219 218 216 215 214
213 194 208 250 268 267 265 270 283 267 188 227 240 225 224 227 233 245 255 264 260 242 237 254 259 241 247 286 297 303 300 296 293 291 288 288 292 291 273 268 277 289 306 317 320 322 318 317 321 327 333 325 313 304 292 282 271 261 256 252 247 246 247 246 243 241 237 234 234 232 231 229 226 222 219 217 219 221 221 220 219 218 217 215 214 214
243 232 219 246 259 260 263 262 263 236 187 229 247 233 228 224 226 236 244 241 243 229 223 241 258 254 255 279 285 282 283 284 287 290 290 290 292 287 287 305 316 328 339 339 341 344 342 344 347 347 347 339 328 322 314 306 299 290 281 273 265 259 258 257 254 249 243 237 234 232 231 229 227 225 223 220 220 221 221 220 218 217 215 214 213 213
253 252 233 241 248 252 262 267 273 278 247 234 248 237 231 228 228 232 239 242 248 249 241 240 254 262 258 259 264 264 267 272 277 283 286 292 302 314 348 11 16 16 7 2 6 6 2 2 360 356 355 351 345 340 334 326 317 309 301 293 287 279 271 269 265 257 248 240 235 233 231 229 227 226 226 224 222 221 221 219 218 217 215 214 213 212
250 262 244 246 251 251 259 269 275 278 270 257 258 254 244 237 232 230 237 243 248 259 259 251 256 263 259 252 257 260 262 266 273 282 291 307 334 3 29 31 27 23 15 14 14 9 4 359 356 355 354 351 350 348 346 341 331 322 314 307 302 295 285 278 271 261 253 244 238 236 235 231 228 227 227 226 223 221 220 218 217 217 216 214 213 213
231 258 250 250 257 255 258 264 266 267 268 263 258 256 253 250 246 242 244 246 245 253 263 264 262 264 265 263 262 269 282 292 304 320 343 8 17 22 28 24 20 17 11 9 5 1 359 353 350 351 348 348 348 347 347 346 342 338 331 325 321 314 303 290 274 261 253 246 242 241 240 235 231 228 227 225 222 219 218 217 217 215 215 215 214 214
236 269 276 269 273 272 268 269 269 269 271 268 263 258 255 253 252 251 254 255 256 258 263 266 264 263 273 296 308 330 351 359 9 20 29 29 20 16 19 17 13 8 4 2 357 353 353 349 347 346 345 347 348 347 346 344 343 342 338 336 334 330 324 308 282 263 253 246 246 246 243 236 231 228 226 224 222 220 217 216 215 214 214 214 214 213
294 312 325 317 299 289 283 277 275 275 275 277 278 275 270 266 261 260 264 267 269 267 266 268 267 267 303 352 356 8 17 21 24 28 29 23 15 13 11 8 4 358 355 354 350 348 347 347 347 346 345 345 343 343 343 341 340 339 338 337 334 331 330 319 292 270 257 250 250 249 243 236 231 227 226 224 222 220 217 215 214 214 214 213 211 211
315 296 316 315 292 284 287 280 280 289 289 287 286 281 275 270 266 264 264 264 269 273 275 277 276 284 346 347 348 6 14 14 14 22 28 16 11 10 3 360 357 351 348 347 345 347 347 346 347 345 342 340 339 340 340 338 338 339 338 336 333 331 330 326 307 281 266 260 257 253 246 240 234 228 226 224 222 220 217 215 214 213 212 210 209 208
262 272 296 294 285 287 285 284 293 302 294 277 271 272 266 262 265 266 264 267 283 291 285 282 301 1 344 344 358 3 7 5 355 0 34 16 6 6 360 353 348 344 343 342 342 343 343 343 344 340 336 335 334 334 336 336 336 336 335 334 334 335 334 333 325 306 288 281 276 268 260 252 242 234 229 225 222 220 216 213 213 211 210 209 208 207
248 260 270 271 278 280 283 292 298 287 274 269 284 315 307 295 301 292 294 347 2 10 39 78 67 26 358 5 8 351 346 350 336 319 53 28 10 2 352 346 344 341 338 337 340 340 339 339 338 337 335 334 333 333 334 336 336 335 335 337 339 341 341 340 337 327 312 302 294 284 274 262 250 242 237 230 224 220 215 213 213 211 210 208 206 205
255 258 257 254 264 270 281 291 279 266 263 261 35 35 40 35 43 73 79 45 28 32 48 48 37 27 7 356 354 336 320 319 314 285 247 23 12 359 346 342 338 336 333 334 336 334 335 337 336 335 334 332 332 333 334 337 337 336 337 339 341 344 345 345 344 339 331 321 310 299 284 270 259 251 245 237 228 221 217 215 213 211 209 207 205 206
243 257 257 239 251 263 267 250 254 276 289 150 60 29 29 24 31 59 85 57 36 23 25 23 9 8 347 321 317 316 300 298 299 262 216 15 2 348 339 334 328 329 329 329 328 325 329 331 329 328 327 326 329 331 332 335 336 335 336 337 340 342 345 346 346 345 341 333 324 313 296 280 267 258 252 243 232 224 219 217 214 211 209 207 207 207
225 239 250 243 235 236 252 249 256 287 294 255 336 359 13 324 336 330 277 94 65 24 341 184 354 332 314 302 299 296 293 299 306 261 145 29 345 329 326 318 313 321 323 320 318 316 318 322 323 323 323 324 327 328 330 332 333 333 333 336 338 340 342 345 346 345 343 338 332 323 308 290 274 263 256 246 234 226 222 218 215 212 208 206 205 205
218 225 234 248 241 238 269 276 268 280 284 246 266 267 245 250 254 243 252 218 105 39 279 186 221 289 273 277 286 291 309 320 321 317 62 353 324 315 309 300 304 319 318 315 313 312 314 320 322 324 325 326 326 327 329 329 330 331 332 334 337 337 337 341 342 341 340 338 335 330 317 301 282 267 257 247 237 230 225 220 216 213 209 206 205 204
241 239 226 245 261 256 267 275 269 270 263 135 238 255 247 262 261 231 251 229 130 24 246 189 226 271 252 259 274 290 330 328 318 312 317 321 315 307 299 300 309 311 307 307 307 307 313 319 323 326 328 328 326 327 329 329 329 330 330 331 335 335 335 336 337 336 335 335 335 332 323 310 291 273 260 250 242 235 228 222 217 213 210 208 206 205
10 311 221 232 259 258 258 261 262 270 246 169 242 264 261 269 265 221 259 255 114 251 222 183 232 264 238 237 250 235 282 297 301 302 306 308 300 288 287 297 303 303 302 303 305 308 314 320 324 327 327 326 324 325 327 328 328 329 329 329 332 333 332 331 331 331 331 331 333 332 326 315 298 281 268 257 248 240 232 225 218 213 209 207 206 204
320 270 229 227 242 250 259 266 269 269 242 219 250 265 275 308 326 235 257 308 356 305 255 189 222 247 228 221 225 210 228 242 260 279 288 293 291 287 287 286 289 291 292 295 301 307 312 315 318 320 319 318 319 321 323 326 326 327 327 328 329 328 327 327 327 328 328 329 330 330 326 318 304 289 276 263 252 242 232 224 218 213 208 204 202 201
253 251 254 235 227 235 246 255 272 274 216 159 265 276 275 343 253 248 256 298 280 283 271 222 226 237 230 224 223 227 238 244 254 267 276 284 286 286 290 289 287 287 287 291 299 304 306 307 310 310 309 311 314 316 321 325 325 324 325 325 324 324 324 324 324 324 324 324 325 325 323 318 308 295 280 266 251 239 230 222 217 213 208 203 201 199
244 248 263 234 210 262 264 245 264 267 221 115 351 315 307 207 246 265 291 267 246 261 265 250 236 233 236 236 234 239 249 257 263 266 272 279 283 285 290 292 291 291 294 297 300 302 303 303 303 301 302 308 313 317 323 326 323 321 321 319 318 320 321 321 321 321 320 320 320 319 318 314 308 297 281 265 250 237 229 222 216 212 207 204 202 199
236 228 250 242 219 240 248 236 235 238 245 324 333 307 283 277 269 260 277 287 289 285 266 249 239 234 232 233 242 254 264 268 269 272 277 284 291 295 295 295 296 298 300 300 298 300 302 301 301 303 306 311 316 319 323 324 319 316 314 313 316 318 318 317 318 317 316 315 315 314 312 309 304 294 280 265 249 235 228 222 215 211 207 204 203 201
231 216 229 246 242 225 214 229 248 263 290 299 291 272 272 278 272 243 249 282 294 287 258 232 239 240 226 220 239 256 262 264 267 274 281 285 291 294 294 296 298 300 302 302 300 301 305 306 307 309 310 312 316 318 318 318 316 312 309 311 315 316 314 314 314 313 311 311 310 309 307 304 298 289 277 263 246 232 226 221 214 210 207 205 204 205
259 238 225 262 265 258 246 245 260 278 278 267 265 263 261 262 263 265 272 279 279 273 255 227 226 231 222 220 236 249 255 261 268 274 278 283 286 286 286 288 292 295 298 300 301 305 312 314 312 311 311 310 312 312 311 311 310 308 306 309 312 312 311 312 312 310 308 307 304 303 301 296 291 284 273 261 246 234 228 221 215 212 210 207 207 209
267 235 226 253 262 264 264 257 257 264 262 259 264 268 260 254 260 267 271 269 265 259 249 225 213 227 234 227 230 246 261 269 274 277 282 285 283 284 286 287 288 289 289 289 293 301 309 313 311 311 310 308 307 307 307 307 305 304 304 306 308 309 310 311 310 308 307 304 301 299 295 288 283 277 267 256 243 233 229 224 219 216 212 210 209 209
250 198 200 238 251 252 257 263 267 267 263 262 264 267 269 271 269 264 260 259 256 254 257 243 218 245 261 258 258 274 280 280 280 281 286 286 280 282 285 286 288 291 291 292 294 299 304 303 300 302 303 301 301 303 304 304 303 303 303 302 304 308 311 309 305 303 302 300 297 294 288 281 275 268 259 250 240 231 227 223 219 217 218 217 212 208
239 223 209 227 247 258 263 268 273 273 271 270 265 263 267 270 268 268 269 267 278 316 319 317 306 289 290 292 300 302 288 284 284 283 280 279 279 280 282 283 287 289 289 292 296 300 303 301 298 298 296 293 295 299 301 301 301 301 301 299 302 309 311 306 301 298 296 295 292 288 283 277 269 261 253 246 239 233 231 227 222 220 223 225 222 217
219 244 248 245 252 262 263 262 264 269 276 278 273 274 281 277 260 268 289 326 358 355 337 320 310 307 301 289 287 285 279 278 282 283 280 278 278 279 282 285 288 287 287 290 296 299 298 297 296 296 294 293 295 298 298 298 299 298 296 297 302 308 306 300 297 294 290 288 285 282 279 273 264 257 250 243 238 235 235 234 230 227 228 231 231 228
225 238 246 250 252 257 260 261 264 272 278 275 276 288 321 8 16 352 360 1 351 342 335 318 304 300 296 287 274 265 267 275 281 283 282 279 278 280 282 283 284 285 288 292 297 297 297 296 296 295 293 293 296 298 297 297 297 294 293 297 303 305 299 293 290 287 283 281 280 280 279 273 264 255 247 241 237 234 233 234 233 232 231 232 234 233